Location: El Carrer d�Abaix
(41.5797°N, 2.1791°E)
Time: 21:52:58
(UTC+00:00)

Cosmos 2082 Rocket - Pass Details

Date: 02 October 2020
Orbit: 834 x 853 km, 71.0° (Epoch: 27 October)

Event Time Altitude Azimuth Distance (km) Brightness Sun altitude
Rises 19:01:11 0° 338° (NNW) 3,393 5.8 -17.7°
Reaches altitude 10° 19:03:39 10° 340° (NNW) 2,457 5.0 -18.1°
Maximum altitude 19:09:16 70° 64° (ENE) 895 2.1 -19.2°
Enters shadow 19:12:17 28° 142° (SE) 1,522 3.1 -19.7°
